Zurück zum Katalog

ORBCOMM FM 13

AktivKommunikationLEO
NORAD 25420·PAYLOAD·🇺🇸 United States

Gestartet Aug 2, 1998 von Cape Canaveral Space Force Station

Loading…

Nächste Überflüge (nächste 24 Stunden)

TLE

AktuellSource: Space-Track

Epoche: Sep 13, 2026, 20:48 UTC

1 25420U 98046H   26256.86728218  .00000605  00000-0  24104-3 0  9998
2 25420  44.9962 192.0815 0005882  17.4217 342.6832 14.38753351468556

Verfolge ORBCOMM FM 13 in Echtzeit mit AllMySat

Download on the App Store